Content
SEND FEEDBACK

Daily
Averages
Monthly
Summary
United States of America

DUNSMUIR, CALIFORNIA


Home > North America > United States > California
Elevation: 3289 feet     Latitude: 41 12N     Longitude: 122 16W

WEATHER
 
SELECT A DAY
Number of Records: 231,198;   Date Range: 1/1/95 - 7/7/14
 
SHARE

PRINT THIS DATA

[ ← Previous Day ]
WEATHER ALMANAC - JANUARY 10, 2013
[ Next Day → ]
[ °C ]   °F
Weather ElementAverageHighLow
Temperature28.7 °F33.1 °F (10:56 am)21 °F (5:56 am)
Dewpoint20.8 °F24.8 °F (4:12 pm)15.1 °F (5:56 am)
Humidity72.6 %86 % (4:12 pm)54 % (10:56 am)
Barometer30.05 in30.15 in (11:56 pm)29.97 in (1:53 pm)
Wind Speed4.9 mph10.4 mph (8:56 pm)
Wind Gust21.9 mph (8:56 pm)
Weather ElementAverage
Visibility5.8 mi
Wind DirectionENE (77.3 °)

Weather ElementTotal
Precipitation0.09 in
Heating Degree Days38 (Base 65)
Averaged from 41 records on January 10, 2013
WEATHER CONDITIONS BREAKOUT
WIND DIRECTION BREAKOUT
WEATHER BY HOUR - JANUARY 10, 2013
[ °C ]   °F
Local TimeTemperatureDewpointHumidityBarometerVisibilityWind DirectionWind SpeedGust SpeedPrecipitationEventsConditions
1:56 AM27.0 °F18.0 °F69 %30.02 in10.0 miVariable3.5 mphMostly Cloudy
2:56 AM24.1 °F18.0 °F77 %30.04 in10.0 miCalmClear
3:56 AM23.0 °F17.1 °F78 %30.04 in10.0 miCalmClear
4:56 AM21.9 °F17.1 °F82 %30.05 in10.0 miCalmClear
5:56 AM21.0 °F15.1 °F78 %30.07 in10.0 miCalmClear
6:56 AM24.1 °F18.0 °F77 %30.07 in10.0 miCalmMostly Cloudy
7:56 AM27.0 °F18.0 °F69 %30.09 in10.0 miVariable5.8 mphMostly Cloudy
8:31 AM28.4 °F17.6 °F64 %29.98 in9.0 miNorth (360°)5.8 mph0.00 inMostly Cloudy
8:41 AM28.4 °F17.6 °F64 %29.98 in10.0 miVariable5.8 mph0.00 inScattered Clouds
8:56 AM28.9 °F18.0 °F64 %30.11 in10.0 miNorth (10°)8.1 mph0.00 inPartly Cloudy
9:56 AM32.0 °F19.0 °F59 %30.12 in10.0 miVariable4.6 mphScattered Clouds
10:56 AM33.1 °F18.0 °F54 %30.12 in10.0 miVariable6.9 mphMostly Cloudy
12:56 PM32.0 °F19.9 °F61 %30.09 in9.0 miVariable6.9 mph0.00 inOvercast
1:53 PM30.2 °F21.2 °F69 %29.97 in2.0 miVariable3.5 mph0.00 inSnowLight Snow
1:56 PM30.9 °F21.9 °F69 %30.10 in1.8 miVariable3.5 mph0.00 inSnowLight Snow
2:25 PM30.2 °F23.0 °F75 %29.98 in3.0 miNNW (340°)5.8 mph0.00 inSnowLight Snow
2:56 PM30.9 °F21.9 °F69 %30.11 in8.0 miVariable5.8 mph0.00 inSnowLight Snow
3:48 PM30.2 °F21.2 °F69 %29.98 in2.5 miVariable4.6 mph0.00 inSnowLight Snow
3:52 PM30.2 °F23.0 °F75 %29.98 in1.2 miVariable6.9 mph0.00 inSnowLight Snow
3:56 PM30.0 °F23.0 °F75 %30.11 in1.0 miNorth (360°)8.1 mph0.00 inSnowLight Snow
4:03 PM30.2 °F23.0 °F75 %29.98 in0.8 miNorth (350°)4.6 mph0.00 inSnowLight Snow
4:12 PM28.4 °F24.8 °F86 %29.98 in0.2 miVariable3.5 mph0.01 inSnowHeavy Snow
4:24 PM30.2 °F24.8 °F80 %29.98 in1.0 miVariable5.8 mph0.01 inSnowLight Snow
4:30 PM30.2 °F24.8 °F80 %29.98 in2.0 miVariable3.5 mph0.01 inSnowLight Snow
4:38 PM30.2 °F23.0 °F75 %29.98 in5.0 miVariable4.6 mph0.01 inSnowLight Snow
4:48 PM30.2 °F23.0 °F75 %29.98 in3.0 miVariable3.5 mph0.01 inSnowLight Snow
4:56 PM30.0 °F23.0 °F75 %30.12 in6.0 miCalm0.01 inSnowLight Snow
5:56 PM30.0 °F21.9 °F72 %30.13 in9.0 miCalm0.00 inOvercast
6:56 PM30.0 °F21.9 °F72 %30.13 in4.0 miVariable6.9 mph0.00 inSnowLight Snow
7:56 PM30.0 °F21.9 °F72 %30.12 in10.0 miVariable4.6 mph0.00 inOvercast
8:37 PM30.2 °F23.0 °F75 %30.00 in1.8 miVariable3.5 mph0.00 inSnowLight Snow
8:42 PM28.4 °F23.0 °F80 %30.00 in1.2 miVariable6.9 mph0.01 inSnowLight Snow
8:51 PM28.4 °F23.0 °F80 %30.00 in1.5 miVariable6.9 mph18.4 mph0.01 inSnowLight Snow
8:56 PM28.9 °F21.9 °F75 %30.13 in2.0 miNNW (340°)10.4 mph21.9 mph0.01 inSnowLight Snow
9:56 PM28.9 °F21.0 °F72 %30.13 in10.0 miVariable6.9 mph0.00 inOvercast
10:25 PM28.4 °F21.2 °F74 %30.01 in2.5 miNNW (330°)6.9 mph0.00 inSnowLight Snow
10:31 PM28.4 °F21.2 °F74 %30.02 in1.2 miNorth (360°)4.6 mph0.00 inSnowLight Snow
10:41 PM28.4 °F21.2 °F74 %30.01 in2.0 miNorth (360°)9.2 mph0.00 inSnowLight Snow
10:49 PM28.4 °F21.2 °F74 %30.01 in9.0 miNorth (360°)10.4 mph19.6 mph0.00 inMostly Cloudy
10:56 PM28.0 °F21.0 °F75 %30.12 in9.0 miVariable6.9 mph19.6 mph0.00 inMostly Cloudy
11:56 PM28.0 °F18.0 °F66 %30.15 in10.0 miVariable6.9 mphClear
Hourly data recorded from KMHS, located miles away from Dunsmuir, California







STORIES FROM OUR PARTNERS